Location: Pinawa
(50.1500°N, 95.8830°W)
Time: 06:04:56
(UTC-05:00)

Amateur Radio Satellites - All Passes

Search period start: 19 October 2017 05:34
Search period end: 20 October 2017 05:34
Location: Pinawa, 50.1500°N, 95.8830°W

Satellite Date Start Highest point End Downlink Frequencies (MHz)
Time Altitude Azimuth
RS-15 19 Oct 05:35:47 05:47:23 43° 346° (NNW) 05:58:41 29.354- 29.394
O/OREOS (USA 219) 19 Oct 06:09:25 06:13:29 29° 50° (NE) 06:17:31 437.305
DOVE 4 19 Oct 06:18:15 06:23:00 48° 99° (E) 06:27:57 437.250
NO-84 19 Oct 06:24:10 06:28:26 67° 338° (NNW) 06:32:30 435.350 FM
KKS-1 19 Oct 06:29:56 06:33:42 27° 265° (W) 06:37:32 437.445
ITAMSAT 1 19 Oct 06:34:25 06:38:54 29° 299° (WNW) 06:43:21 435.822/435.867
STRAND 1 19 Oct 06:50:04 06:54:30 31° 62° (ENE) 06:59:00 437.568
CUTE-I 19 Oct 06:53:08 06:57:30 25° 92° (E) 07:01:51 437.470
XW-2F 19 Oct 06:54:09 06:57:11 23° 93° (E) 07:00:11 145.980 - 146.000
KAITUO 1B 19 Oct 06:55:11 06:57:52 19° 92° (E) 07:00:33 145.475/437.950
LilacSat-2 19 Oct 06:56:01 06:59:17 27° 95° (E) 07:02:31 437.200
AO-7 19 Oct 06:57:23 07:04:51 39° 307° (NW) 07:12:18 .
XW-2D 19 Oct 07:05:05 07:08:30 32° 96° (E) 07:11:54 145.860 - 145.880
STARS 19 Oct 07:06:55 07:10:38 27° 265° (W) 07:14:24 437.465
NUDT-PHONESAT 19 Oct 07:11:32 07:14:41 26° 95° (E) 07:17:49 437.300
XW-2B 19 Oct 07:18:22 07:21:59 43° 99° (E) 07:25:34 145.730 - 145.750
XW-2C 19 Oct 07:41:27 07:45:13 82° 101° (E) 07:48:58 145.795 - 145.815
SO-50 19 Oct 07:42:29 07:46:18 28° 117° (ESE) 07:50:09 436.795
O/OREOS (USA 219) 19 Oct 07:48:41 07:53:05 44° 251° (WSW) 07:57:26 437.305
RS-15 19 Oct 07:51:43 08:03:21 45° 19° (NNE) 08:14:28 29.354- 29.394
UWE-3 19 Oct 07:52:04 07:52:33 10° 83° (E) 07:53:04 435.000/436.395/437.385
DOVE 4 19 Oct 07:56:22 08:00:29 28° 296° (WNW) 08:04:46 437.250
CUTE 1.7 + AOD 2 19 Oct 07:58:48 08:02:30 30° 95° (E) 08:06:12 437.475
NO-84 19 Oct 08:02:20 08:06:18 40° 358° (N) 08:10:02 435.350 FM
FO-29 19 Oct 08:08:05 08:12:32 28° 58° (ENE) 08:17:18 435.910
SEEDS 19 Oct 08:08:52 08:12:19 24° 93° (E) 08:15:43 437.485
HO-68 19 Oct 08:19:32 08:26:32 50° 100° (E) 08:33:29 435.675
YUBILEINY 19 Oct 08:26:45 08:31:21 16° 70° (ENE) 08:35:58 435.215
XW-2F 19 Oct 08:28:00 08:31:22 33° 292° (WNW) 08:34:43 145.980 - 146.000
KAITUO 1B 19 Oct 08:28:34 08:32:02 39° 290° (WNW) 08:35:29 145.475/437.950
STRAND 1 19 Oct 08:28:36 08:33:31 46° 261° (W) 08:38:30 437.568
LilacSat-2 19 Oct 08:30:15 08:33:33 28° 293° (WNW) 08:36:47 437.200
CUTE-I 19 Oct 08:32:38 08:37:55 58° 291° (WNW) 08:43:11 437.470
AAUSAT CUBESAT 2 19 Oct 08:37:10 08:40:26 22° 92° (E) 08:43:41 437.432
PCSat 19 Oct 08:38:35 08:42:37 22° 108° (ESE) 08:46:40 145.827
XW-2D 19 Oct 08:39:30 08:42:33 24° 295° (WNW) 08:45:36 145.860 - 145.880
CUBEBUG 2 19 Oct 08:44:13 08:48:50 53° 99° (E) 08:53:17 437.445
NUDT-PHONESAT 19 Oct 08:45:21 08:48:31 27° 293° (WNW) 08:51:39 437.300
AO-73 19 Oct 08:45:45 08:48:38 17° 89° (E) 08:51:29 145.935
AO-7 19 Oct 08:51:34 08:55:23 14° 332° (NNW) 08:59:13 .
XW-2B 19 Oct 08:53:12 08:55:53 19° 297° (WNW) 08:58:33 145.730 - 145.750
ZACube-1 19 Oct 09:06:16 09:10:09 29° 94° (E) 09:13:57 437.345
XW-2A 19 Oct 09:06:34 09:09:54 56° 102° (ESE) 09:13:10 145.665 - 145.685
XW-2C 19 Oct 09:17:29 09:18:50 12° 302° (WNW) 09:20:10 145.795 - 145.815
SO-50 19 Oct 09:22:10 09:26:33 51° 318° (NW) 09:30:59 436.795
PRISM 19 Oct 09:24:07 09:26:24 15° 58° (ENE) 09:28:41 437.425
UWE-3 19 Oct 09:25:15 09:29:51 78° 102° (ESE) 09:34:17 435.000/436.395/437.385
UNISAT 6 19 Oct 09:27:54 09:32:06 34° 65° (ENE) 09:36:20 437.425
CUTE 1.7 + AOD 2 19 Oct 09:34:36 09:38:21 32° 293° (WNW) 09:42:05 437.475
NO-84 19 Oct 09:40:11 09:44:11 60° 20° (NNE) 09:47:52 435.350 FM
TIGRISAT 19 Oct 09:42:51 09:47:14 42° 67° (ENE) 09:51:41 435.000
SEEDS 19 Oct 09:44:15 09:48:07 38° 292° (WNW) 09:51:59 437.485
Oscar 11 19 Oct 09:45:17 09:49:26 43° 98° (E) 09:53:31 .
FO-29 19 Oct 09:52:13 09:57:20 53° 261° (W) 10:02:54 435.910
RS-15 19 Oct 10:05:23 10:17:34 86° 50° (NE) 10:29:02 29.354- 29.394
HO-68 19 Oct 10:07:30 10:14:12 43° 300° (WNW) 10:20:52 435.675
AAUSAT CUBESAT 2 19 Oct 10:12:10 10:16:03 41° 291° (WNW) 10:19:56 437.432
CUTE-I 19 Oct 10:14:49 10:16:55 12° 311° (NW) 10:19:00 437.470
DELFI C3 19 Oct 10:17:29 10:20:39 22° 93° (E) 10:23:48 145.870
YUBILEINY 19 Oct 10:17:49 10:26:22 67° 93° (E) 10:35:00 435.215
PCSat 19 Oct 10:20:03 10:25:28 75° 308° (NW) 10:30:56 145.827
AO-73 19 Oct 10:20:56 10:25:18 61° 288° (WNW) 10:29:33 145.935
CUBEBUG 2 19 Oct 10:21:24 10:25:07 23° 299° (WNW) 10:28:45 437.445
XW-2A 19 Oct 10:40:37 10:42:10 13° 299° (WNW) 10:43:43 145.665 - 145.685
ZACube-1 19 Oct 10:42:26 10:46:30 35° 293° (WNW) 10:50:26 437.345
EO-79 19 Oct 10:43:26 10:45:04 12° 55° (NE) 10:46:42 145.935-145.965
POLYITAN 1 19 Oct 10:47:24 10:49:22 13° 56° (NE) 10:51:23 437.675
ISS 19 Oct 10:52:06 10:53:04 11° 136° (SE) 10:54:02 437.550
PRISM 19 Oct 10:57:07 11:01:09 73° 257° (WSW) 11:05:14 437.425
UWE-3 19 Oct 11:02:52 11:05:42 16° 303° (WNW) 11:08:30 435.000/436.395/437.385
AIST 2D 19 Oct 11:03:57 11:07:05 31° 68° (ENE) 11:10:13 435.315
UNISAT 6 19 Oct 11:04:31 11:08:46 35° 264° (W) 11:13:06 437.425
SO-50 19 Oct 11:04:57 11:08:01 18° 340° (NNW) 11:11:06 436.795
QB50P2 19 Oct 11:06:11 11:09:19 20° 61° (ENE) 11:12:28 145.880/145.840
NANOSAT C BR1 19 Oct 11:10:56 11:13:53 19° 60° (ENE) 11:16:52 145.865
NO-84 19 Oct 11:17:53 11:21:27 36° 221° (SW) 11:24:45 435.350 FM
TIGRISAT 19 Oct 11:20:03 11:24:03 28° 267° (W) 11:28:06 435.000
EO-88 19 Oct 11:20:15 11:23:51 56° 101° (E) 11:27:24 145.990 - 145.960
Oscar 11 19 Oct 11:21:52 11:25:21 24° 297° (WNW) 11:28:48 .
DUCHIFAT 1 19 Oct 11:22:07 11:25:18 21° 61° (ENE) 11:28:29 145.980
Max Valier Satellite 19 Oct 11:27:08 11:30:51 88° 275° (W) 11:34:31 145.860
ESTCUBE 1 19 Oct 11:36:52 11:38:27 12° 86° (E) 11:40:02 437.505/2401.250
DELFI C3 19 Oct 11:51:51 11:55:32 38° 291° (WNW) 11:59:12 145.870
nSIGHT-1 19 Oct 11:56:16 11:59:12 34° 149° (SSE) 12:02:09 .
HO-68 19 Oct 11:57:15 12:00:08 13° 323° (NW) 12:03:02 435.675
PCSat 19 Oct 12:05:31 12:09:46 23° 331° (NNW) 12:14:02 145.827
LO-87 19 Oct 12:13:53 12:17:13 33° 97° (E) 12:20:32 145.935 - 145.965
EO-79 19 Oct 12:15:50 12:20:06 79° 74° (ENE) 12:24:25 145.935-145.965
YUBILEINY 19 Oct 12:16:04 12:23:50 35° 297° (WNW) 12:31:43 435.215
RS-15 19 Oct 12:18:43 12:28:42 34° 255° (WSW) 12:38:17 29.354- 29.394
POLYITAN 1 19 Oct 12:20:12 12:24:30 87° 71° (ENE) 12:28:49 437.675
ISS 19 Oct 12:25:46 12:28:56 49° 154° (SSE) 12:32:06 437.550
AO-7 19 Oct 12:30:00 12:33:40 14° 27° (NNE) 12:37:19 .
Oscar 19 19 Oct 12:30:16 12:34:03 21° 57° (ENE) 12:37:49 437.125/150
SPROUT 19 Oct 12:32:41 12:33:52 11° 86° (E) 12:35:03 437.525
AIST 2D 19 Oct 12:37:32 12:40:18 21° 267° (W) 12:43:05 435.315
M-CUBED/EXP-1 PRIME 19 Oct 12:39:04 12:41:30 19° 58° (ENE) 12:43:54 437.505
QB50P2 19 Oct 12:40:34 12:44:45 54° 260° (W) 12:49:00 145.880/145.840
BEESAT 3 19 Oct 12:43:09 12:46:03 19° 115° (ESE) 12:48:58 437.485
NANOSAT C BR1 19 Oct 12:44:59 12:49:12 60° 259° (WSW) 12:53:27 145.865
SO-50 19 Oct 12:47:56 12:50:14 14° 5° (N) 12:52:33 436.795
Gurwin Techsat 1B 19 Oct 12:51:57 12:56:03 23° 58° (ENE) 13:00:10 435.225
EO-88 19 Oct 12:54:59 12:57:05 15° 299° (WNW) 12:59:12 145.990 - 145.960
DUCHIFAT 1 19 Oct 12:56:29 13:00:38 52° 260° (W) 13:04:50 145.980
Max Valier Satellite 19 Oct 13:03:29 13:04:02 10° 303° (WNW) 13:04:35 145.860
VELOX 1 19 Oct 13:07:01 13:09:59 17° 90° (E) 13:12:57 145.980
BUGSAT 1 19 Oct 13:08:41 13:12:50 63° 72° (ENE) 13:17:03 437.445
ESTCUBE 1 19 Oct 13:11:26 13:15:57 88° 110° (ESE) 13:20:25 437.505/2401.250
nSIGHT-1 19 Oct 13:32:08 13:35:21 77° 349° (NNW) 13:38:34 .
LO-87 19 Oct 13:47:35 13:50:29 23° 295° (WNW) 13:53:22 145.935 - 145.965
PCSat 19 Oct 13:52:41 13:55:15 13° 357° (N) 13:57:49 145.827
EO-79 19 Oct 13:54:27 13:56:25 13° 273° (W) 13:58:24 145.935-145.965
POLYITAN 1 19 Oct 13:59:19 14:00:53 12° 273° (W) 14:02:29 437.675
BEESAT 2 19 Oct 14:00:08 14:03:47 34° 120° (ESE) 14:07:29 435.950
ISS 19 Oct 14:02:07 14:05:22 69° 353° (N) 14:08:38 437.550
SPROUT 19 Oct 14:06:05 14:10:26 88° 105° (ESE) 14:14:44 437.525
Oscar 19 19 Oct 14:07:42 14:12:52 73° 257° (WSW) 14:18:02 437.125/150
M-CUBED/EXP-1 PRIME 19 Oct 14:12:40 14:15:48 35° 255° (WSW) 14:18:50 437.505
DX 1 19 Oct 14:16:34 14:20:00 22° 93° (E) 14:23:26 434.975-435.025
AO-7 19 Oct 14:16:46 14:24:09 38° 52° (NE) 14:31:32 .
BEESAT 3 19 Oct 14:19:14 14:23:13 61° 313° (NW) 14:27:15 437.485
SO-50 19 Oct 14:28:27 14:32:14 25° 30° (NNE) 14:36:04 436.795
Gurwin Techsat 1B 19 Oct 14:30:16 14:35:33 67° 257° (WSW) 14:40:53 435.225
ITAMSAT 1 19 Oct 14:39:27 14:43:22 22° 57° (ENE) 14:47:19 435.822/435.867
VELOX 1 19 Oct 14:42:27 14:46:51 62° 289° (WNW) 14:51:13 145.980
UKube-1 19 Oct 14:42:47 14:46:26 26° 95° (E) 14:50:04 .
AO-85 19 Oct 14:44:24 14:48:13 59° 126° (SE) 14:52:13 145.980
50 SAT 19 Oct 14:45:31 14:48:46 49° 101° (E) 14:51:59 437.505
BUGSAT 1 19 Oct 14:46:02 14:48:36 16° 271° (W) 14:51:13 437.445
ESTCUBE 1 19 Oct 14:49:41 14:52:07 15° 304° (NW) 14:54:32 437.505/2401.250
nSIGHT-1 19 Oct 15:08:34 15:11:46 71° 8° (N) 15:14:59 .
ITUPSAT 1 19 Oct 15:25:32 15:27:09 12° 86° (E) 15:28:46 437.325
PCSat 19 Oct 15:37:08 15:40:54 18° 23° (NNE) 15:44:39 145.827
BEESAT 2 19 Oct 15:37:42 15:41:30 37° 320° (NW) 15:45:19 435.950
ISS 19 Oct 15:38:43 15:42:00 82° 13° (NNE) 15:45:17 437.550
BEESAT 19 Oct 15:40:38 15:43:40 16° 89° (E) 15:46:40 436.000
SPROUT 19 Oct 15:43:30 15:45:41 14° 304° (WNW) 15:47:52 437.525
Oscar 19 19 Oct 15:51:30 15:53:06 11° 276° (W) 15:54:42 437.125/150
DX 1 19 Oct 15:52:13 15:56:25 46° 291° (WNW) 16:00:36 434.975-435.025
DOVE 4 19 Oct 15:54:35 15:55:49 11° 53° (NE) 15:57:04 437.250
BEESAT 3 19 Oct 15:58:55 16:01:33 17° 335° (NNW) 16:04:12 437.485
AO-7 19 Oct 16:08:14 16:16:30 68° 254° (WSW) 16:24:48 .
SO-50 19 Oct 16:08:38 16:13:15 85° 229° (SW) 16:17:54 436.795
Gurwin Techsat 1B 19 Oct 16:15:25 16:16:32 11° 277° (W) 16:17:39 435.225
ITAMSAT 1 19 Oct 16:17:11 16:22:22 70° 257° (WSW) 16:27:35 435.822/435.867
UKube-1 19 Oct 16:18:32 16:22:34 39° 293° (WNW) 16:26:36 .
50 SAT 19 Oct 16:18:56 16:20:43 14° 299° (WNW) 16:22:31 437.505
VELOX 1 19 Oct 16:21:53 16:22:25 10° 308° (NW) 16:22:56 145.980
AO-85 19 Oct 16:25:37 16:28:56 25° 327° (NNW) 16:32:25 145.980
MOZHAYETS 4 19 Oct 16:41:08 16:45:44 64° 101° (ESE) 16:50:16
CUTE-I 19 Oct 16:43:14 16:45:28 13° 49° (NE) 16:47:43 437.470
nSIGHT-1 19 Oct 16:44:56 16:47:59 43° 208° (SSW) 16:51:03 .
CUBESAT XI-V 19 Oct 16:50:14 16:53:44 21° 91° (E) 16:57:13 437.345
ITUPSAT 1 19 Oct 17:00:56 17:05:46 80° 104° (ESE) 17:10:34 437.325
HO-68 19 Oct 17:09:02 17:13:18 17° 43° (NE) 17:17:35 435.675
ISS 19 Oct 17:15:21 17:18:18 31° 212° (SSW) 17:21:14 437.550
BEESAT 19 Oct 17:17:11 17:21:59 74° 287° (WNW) 17:26:44 436.000
BEESAT 2 19 Oct 17:18:17 17:20:19 13° 342° (NNW) 17:22:21 435.950
PCSat 19 Oct 17:20:13 17:25:33 52° 47° (NE) 17:30:50 145.827
DOVE 4 19 Oct 17:28:28 17:32:39 73° 75° (ENE) 17:37:04 437.250
XW-2F 19 Oct 17:39:16 17:42:16 23° 65° (ENE) 17:45:16 145.980 - 146.000
KAITUO 1B 19 Oct 17:39:33 17:42:12 19° 63° (ENE) 17:44:51 145.475/437.950
BEESAT 3 19 Oct 17:40:36 17:40:42 10° 359° (N) 17:40:48 437.485
LilacSat-2 19 Oct 17:42:06 17:45:23 27° 67° (ENE) 17:48:39 437.200
XW-2D 19 Oct 17:50:25 17:53:49 32° 68° (ENE) 17:57:13 145.860 - 145.880
SO-50 19 Oct 17:50:36 17:53:02 14° 249° (WSW) 17:55:29 436.795
NUDT-PHONESAT 19 Oct 17:54:49 17:57:55 25° 66° (ENE) 18:00:59 437.300
ITAMSAT 1 19 Oct 18:01:32 18:02:48 11° 276° (W) 18:04:05 435.822/435.867
XW-2B 19 Oct 18:03:36 18:07:11 41° 70° (ENE) 18:10:47 145.730 - 145.750
AO-7 19 Oct 18:06:11 18:10:53 16° 276° (W) 18:15:37 .
AO-85 19 Oct 18:09:11 18:10:47 12° 352° (N) 18:12:25 145.980
CUBEBUG 2 19 Oct 18:12:47 18:14:53 13° 54° (NE) 18:16:59 437.445
KKS-1 19 Oct 18:15:12 18:19:26 40° 98° (E) 18:23:40 437.445
MOZHAYETS 4 19 Oct 18:19:10 18:22:27 20° 301° (WNW) 18:25:43
CUTE-I 19 Oct 18:19:17 18:24:30 61° 70° (ENE) 18:29:46 437.470
XW-2C 19 Oct 18:26:34 18:30:22 76° 73° (ENE) 18:34:09 145.795 - 145.815
CUBESAT XI-V 19 Oct 18:26:56 18:31:25 53° 290° (WNW) 18:35:53 437.345
YUBILEINY 19 Oct 18:27:15 18:30:27 12° 39° (NE) 18:33:40 435.215
ITUPSAT 1 19 Oct 18:39:52 18:43:01 18° 304° (NW) 18:46:09 437.325
STARS 19 Oct 18:50:35 18:54:46 38° 98° (E) 18:58:55 437.465
UWE-3 19 Oct 18:51:42 18:54:42 17° 58° (ENE) 18:57:42 435.000/436.395/437.385
HO-68 19 Oct 18:52:40 18:59:40 59° 65° (ENE) 19:06:42 435.675
CUTE 1.7 + AOD 2 19 Oct 18:55:31 18:59:25 38° 68° (ENE) 19:03:20 437.475
BEESAT 19 Oct 18:56:44 18:58:56 13° 308° (NW) 19:01:09 436.000
BEESAT 2 19 Oct 18:58:49 18:59:47 11° 7° (N) 19:00:44 435.950
PCSat 19 Oct 19:03:57 19:08:45 33° 247° (WSW) 19:13:32 145.827
SEEDS 19 Oct 19:04:39 19:08:19 30° 66° (ENE) 19:11:59 437.485
DOVE 4 19 Oct 19:08:53 19:11:00 13° 274° (W) 19:13:09 437.250
KAITUO 1B 19 Oct 19:12:20 19:15:55 43° 261° (W) 19:19:30 145.475/437.950
XW-2F 19 Oct 19:12:44 19:16:14 35° 263° (W) 19:19:44 145.980 - 146.000
LilacSat-2 19 Oct 19:16:14 19:19:36 29° 264° (W) 19:22:59 437.200
BEESAT 3 19 Oct 19:17:25 19:19:53 16° 23° (NNE) 19:22:21 437.485
XW-2D 19 Oct 19:24:52 19:28:02 25° 266° (W) 19:31:12 145.860 - 145.880
NUDT-PHONESAT 19 Oct 19:28:20 19:31:40 30° 264° (W) 19:35:00 437.300
AAUSAT CUBESAT 2 19 Oct 19:31:26 19:34:53 27° 65° (ENE) 19:38:22 437.432
XW-2B 19 Oct 19:38:48 19:41:34 19° 268° (W) 19:44:20 145.730 - 145.750
XW-2A 19 Oct 19:41:38 19:44:51 39° 70° (ENE) 19:48:04 145.665 - 145.685
AO-73 19 Oct 19:44:57 19:48:40 25° 63° (ENE) 19:52:24 145.935
CUBEBUG 2 19 Oct 19:45:58 19:50:39 73° 74° (ENE) 19:55:26 437.445
AO-85 19 Oct 19:50:36 19:52:58 14° 17° (NNE) 19:55:25 145.980
KKS-1 19 Oct 19:52:02 19:55:52 28° 297° (WNW) 19:59:41 437.445
CUTE-I 19 Oct 20:00:46 20:04:57 23° 269° (W) 20:09:11 437.470
XW-2C 19 Oct 20:03:59 20:05:02 11° 273° (W) 20:06:06 145.795 - 145.815
ZACube-1 19 Oct 20:05:45 20:10:04 41° 68° (ENE) 20:14:22 437.345
YUBILEINY 19 Oct 20:22:01 20:30:19 43° 67° (ENE) 20:38:36 435.215
UWE-3 19 Oct 20:25:54 20:30:34 79° 257° (WSW) 20:35:17 435.000/436.395/437.385
STARS 19 Oct 20:27:10 20:30:59 28° 297° (WNW) 20:34:47 437.465
O/OREOS (USA 219) 19 Oct 20:29:12 20:30:54 12° 97° (E) 20:32:38 437.305
CUTE 1.7 + AOD 2 19 Oct 20:31:50 20:35:21 25° 267° (W) 20:38:54 437.475
STRAND 1 19 Oct 20:34:02 20:38:58 43° 98° (E) 20:43:53 437.568
BEESAT 2 19 Oct 20:35:50 20:38:59 21° 30° (NNE) 20:42:07 435.950
SEEDS 19 Oct 20:40:14 20:43:59 31° 265° (W) 20:47:44 437.485
HO-68 19 Oct 20:41:20 20:47:45 35° 265° (W) 20:54:14 435.675
Oscar 11 19 Oct 20:44:04 20:48:19 59° 72° (ENE) 20:52:36 .
BEESAT 3 19 Oct 20:54:21 20:58:18 54° 45° (NE) 21:02:10 437.485
FO-29 19 Oct 20:55:07 21:00:02 20° 88° (E) 21:05:16 435.910
AAUSAT CUBESAT 2 19 Oct 21:06:29 21:10:14 34° 264° (W) 21:14:02 437.432
DELFI C3 19 Oct 21:07:03 21:10:14 24° 65° (ENE) 21:13:26 145.870
XW-2A 19 Oct 21:15:30 21:17:44 16° 268° (W) 21:19:59 145.665 - 145.685
AO-73 19 Oct 21:20:15 21:24:39 47° 261° (W) 21:29:05 145.935
CUBEBUG 2 19 Oct 21:24:50 21:27:48 16° 273° (W) 21:30:48 437.445
AO-85 19 Oct 21:30:23 21:34:30 38° 40° (NE) 21:38:54 145.980
ZACube-1 19 Oct 21:42:32 21:46:27 27° 267° (W) 21:50:23 437.345
EO-88 19 Oct 22:01:50 22:05:21 47° 71° (ENE) 22:08:53 145.990 - 145.960
O/OREOS (USA 219) 19 Oct 22:04:58 22:09:33 86° 114° (ESE) 22:14:11 437.305
UWE-3 19 Oct 22:06:25 22:07:47 11° 276° (W) 22:09:09 435.000/436.395/437.385
Max Valier Satellite 19 Oct 22:09:43 22:13:27 80° 77° (ENE) 22:17:13 145.860
BEESAT 2 19 Oct 22:13:09 22:17:14 86° 236° (SW) 22:21:15 435.950
STRAND 1 19 Oct 22:13:29 22:18:03 32° 297° (WNW) 22:22:34 437.568
YUBILEINY 19 Oct 22:18:57 22:27:24 54° 270° (W) 22:35:53 435.215
Oscar 11 19 Oct 22:21:55 22:24:50 17° 270° (W) 22:27:46 .
BEESAT 3 19 Oct 22:32:29 22:35:32 21° 244° (WSW) 22:38:30 437.485
PRISM 19 Oct 22:35:41 22:36:55 11° 87° (E) 22:38:10 437.425
FO-29 19 Oct 22:39:05 22:45:48 88° 105° (ESE) 22:53:18 435.910
ESTCUBE 1 19 Oct 22:39:57 22:43:13 20° 60° (ENE) 22:46:29 437.505/2401.250
DELFI C3 19 Oct 22:41:15 22:44:50 35° 263° (W) 22:48:28 145.870
UNISAT 6 19 Oct 22:51:06 22:55:26 38° 96° (E) 22:59:41 437.425
LO-87 19 Oct 22:54:04 22:57:10 28° 67° (ENE) 23:00:19 145.935 - 145.965
TIGRISAT 19 Oct 23:06:01 23:10:32 48° 99° (E) 23:14:55 435.000
AO-85 19 Oct 23:10:44 23:14:59 42° 238° (WSW) 23:19:31 145.980
SPROUT 19 Oct 23:29:30 23:32:14 17° 59° (ENE) 23:34:58 437.525
EO-88 19 Oct 23:36:58 23:39:15 16° 269° (W) 23:41:33 145.990 - 145.960
O/OREOS (USA 219) 19 Oct 23:46:25 23:49:37 18° 317° (NW) 23:52:50 437.305
Max Valier Satellite 19 Oct 23:47:24 23:47:48 10° 273° (W) 23:48:13 145.860
BEESAT 2 19 Oct 23:52:46 23:54:18 12° 250° (WSW) 23:55:49 435.950
AIST 2D 19 Oct 23:57:22 00:00:00 20° 93° (E) 00:02:37 435.315
POLYITAN 1 20 Oct 00:02:56 00:03:46 10° 86° (E) 00:04:37 437.675
VELOX 1 20 Oct 00:08:15 00:11:57 27° 63° (ENE) 00:15:40 145.980
PRISM 20 Oct 00:08:38 00:12:47 86° 285° (WNW) 00:16:55 437.425
ESTCUBE 1 20 Oct 00:15:12 00:19:38 59° 259° (W) 00:24:05 437.505/2401.250
YUBILEINY 20 Oct 00:19:08 00:22:03 12° 293° (WNW) 00:24:59 435.215
QB50P2 20 Oct 00:21:23 00:24:21 18° 90° (E) 00:27:18 145.880/145.840
FO-29 20 Oct 00:25:07 00:30:15 25° 304° (NW) 00:35:48 435.910
NANOSAT C BR1 20 Oct 00:25:28 00:28:10 16° 89° (E) 00:30:51 145.865
LO-87 20 Oct 00:27:30 00:30:34 26° 265° (W) 00:33:40 145.935 - 145.965
UNISAT 6 20 Oct 00:27:58 00:32:03 31° 296° (WNW) 00:36:02 437.425
RS-15 20 Oct 00:34:49 00:45:14 34° 105° (ESE) 00:55:36 29.354- 29.394
DUCHIFAT 1 20 Oct 00:36:21 00:39:20 18° 91° (E) 00:42:17 145.980
TIGRISAT 20 Oct 00:43:10 00:46:57 25° 298° (WNW) 00:50:40 435.000
SPROUT 20 Oct 01:03:22 01:07:38 70° 257° (WSW) 01:11:57 437.525
DX 1 20 Oct 01:16:07 01:20:02 34° 66° (ENE) 01:23:59 434.975-435.025
50 SAT 20 Oct 01:18:18 01:21:17 34° 69° (ENE) 01:24:18 437.505
AIST 2D 20 Oct 01:30:07 01:33:16 32° 291° (WNW) 01:36:24 435.315
EO-79 20 Oct 01:31:21 01:35:40 78° 104° (ESE) 01:39:55 145.935-145.965
POLYITAN 1 20 Oct 01:35:56 01:40:15 86° 105° (ESE) 01:44:31 437.675
UKube-1 20 Oct 01:41:13 01:45:14 40° 67° (ENE) 01:49:16 .
VELOX 1 20 Oct 01:44:09 01:48:16 39° 262° (W) 01:52:24 145.980
PRISM 20 Oct 01:45:44 01:47:24 12° 304° (NW) 01:49:05 437.425
QB50P2 20 Oct 01:56:17 02:00:29 55° 289° (WNW) 02:04:39 145.880/145.840
NANOSAT C BR1 20 Oct 02:00:04 02:04:17 62° 288° (WNW) 02:08:28 145.865
DUCHIFAT 1 20 Oct 02:11:09 02:15:20 54° 289° (WNW) 02:19:27 145.980
MOZHAYETS 4 20 Oct 02:12:18 02:15:11 17° 57° (ENE) 02:18:04
Oscar 19 20 Oct 02:14:50 02:19:13 28° 94° (E) 02:23:34 437.125/150
BUGSAT 1 20 Oct 02:20:53 02:25:06 57° 101° (E) 02:29:14 437.445
ITUPSAT 1 20 Oct 02:35:29 02:39:21 25° 60° (ENE) 02:43:14 437.325
Gurwin Techsat 1B 20 Oct 02:41:50 02:46:40 34° 96° (E) 02:51:29 435.225
RS-15 20 Oct 02:44:05 02:56:30 87° 311° (NW) 03:08:48 29.354- 29.394
BEESAT 20 Oct 02:50:51 02:55:06 33° 64° (ENE) 02:59:22 436.000
50 SAT 20 Oct 02:51:30 02:53:43 17° 267° (W) 02:55:59 437.505
DX 1 20 Oct 02:52:27 02:56:15 29° 264° (W) 03:00:05 434.975-435.025
EO-79 20 Oct 03:08:24 03:10:52 15° 302° (WNW) 03:13:18 145.935-145.965
POLYITAN 1 20 Oct 03:13:12 03:15:24 14° 303° (WNW) 03:17:37 437.675
UKube-1 20 Oct 03:17:48 03:21:22 25° 266° (W) 03:24:59 .
M-CUBED/EXP-1 PRIME 20 Oct 03:19:26 03:22:53 60° 108° (ESE) 03:26:34 437.505
KKS-1 20 Oct 03:44:56 03:46:00 11° 52° (NE) 03:47:05 437.445
MOZHAYETS 4 20 Oct 03:47:07 03:51:46 81° 256° (WSW) 03:56:26
Oscar 19 20 Oct 03:53:50 03:58:45 48° 293° (WNW) 04:03:39 437.125/150
BUGSAT 1 20 Oct 03:57:02 04:00:04 19° 300° (WNW) 04:03:04 437.445
CUBESAT XI-V 20 Oct 03:57:35 04:01:46 35° 66° (ENE) 04:05:57 437.345
AO-7 20 Oct 04:04:44 04:11:58 32° 94° (E) 04:19:09 .
ITUPSAT 1 20 Oct 04:12:10 04:16:52 53° 259° (W) 04:21:37 437.325
NO-84 20 Oct 04:12:30 04:16:16 30° 137° (SE) 04:19:58 435.350 FM
STARS 20 Oct 04:19:45 04:20:04 10° 52° (NE) 04:20:24 437.465
Gurwin Techsat 1B 20 Oct 04:21:43 04:26:43 42° 295° (WNW) 04:31:41 435.225
ITAMSAT 1 20 Oct 04:25:31 04:30:05 29° 94° (E) 04:34:37 435.822/435.867
BEESAT 20 Oct 04:28:21 04:32:48 38° 262° (W) 04:37:18 436.000
O/OREOS (USA 219) 20 Oct 04:53:24 04:55:16 12° 35° (NE) 04:57:07 437.305
M-CUBED/EXP-1 PRIME 20 Oct 04:55:01 04:57:01 15° 305° (NW) 04:59:04 437.505
RS-15 20 Oct 04:58:55 05:10:42 46° 339° (NNW) 05:22:12 29.354- 29.394
KKS-1 20 Oct 05:17:19 05:21:42 65° 72° (ENE) 05:26:08 437.445
DOVE 4 20 Oct 05:22:39 05:25:51 17° 88° (E) 05:29:06 437.250
MOZHAYETS 4 20 Oct 05:28:21 05:29:41 11° 275° (W) 05:31:01
